SnugLite
1 43784U 18099AC 21294.45810590 .00000829 00000-0 79135-4 0 9991
2 43784 97.6491 1.8704 0014602 355.3025 4.8057 14.95852361157326
ITASat 1
1 43786U 18099AE 21294.20945220 .00001078 00000-0 10162-3 0 9996
2 43786 97.6554 2.3138 0014772 356.2754 3.8355 14.95759064157283
EAGLET 1
1 43790U 18099AJ 21294.41557665 .00000889 00000-0 84063-4 0 9997
2 43790 97.6545 2.9768 0013281 0.2107 359.9118 14.96092895157044
ESEO
1 43792U 18099AL 21294.15427085 .00000413 00000-0 42065-4 0 9991
2 43792 97.6508 2.2083 0013133 358.3694 1.7482 14.95814725157052
CSIM
1 43793U 18099AM 21294.43479790 .00000705 00000-0 66403-4 0 9999
2 43793 97.6551 3.1061 0012498 352.0232 8.0789 14.96857618157115
Astrocast 0.1
1 43798U 18099AS 21294.74647447 .00001726 00000-0 15739-3 0 9993
2 43798 97.6551 3.5523 0011456 338.5199 21.5541 14.96360797157406
JO-97
1 43803U 18099AX 21294.15136843 .00001040 00000-0 97518-4 0 9993
2 43803 97.6517 1.9969 0014753 356.4643 3.6472 14.96040938157289
Suomi 100
1 43804U 18099AY 21294.15959865 .00000554 00000-0 54421-4 0 9996
2 43804 97.6514 1.9607 0014924 356.1800 3.9305 14.96003371157297
Al Farabi 2
1 43805U 18099AZ 21294.87629489 .00001362 00000-0 12550-3 0 9996
2 43805 97.6531 2.9505 0014792 353.2011 6.9004 14.96266904157416
CHOMPTT
1 43855U 18104G 21294.57179278 .00003128 00000-0 12505-3 0 9993
2 43855 85.0410 209.8893 0018772 46.7443 313.5363 15.24507309158304
ISAT
1 43879U 18111D 21294.88414684 .00001069 00000-0 98217-4 0 9991
2 43879 97.6728 199.8446 0013887 44.0126 316.2202 14.96822344151968
UWE-4
1 43880U 18111E 21294.51833745 .00000362 00000-0 36386-4 0 9990
2 43880 97.6767 200.0385 0013411 45.5974 314.6343 14.97052237153945
Sparrow
1 43881U 18111F 21294.55091436 .00001394 00000-0 12558-3 0 9998
2 43881 97.6774 200.2279 0013446 44.7248 315.5056 14.97114471153952
Lume 1
1 43908U 18111AJ 21294.51672566 .00002968 00000-0 11471-3 0 9994
2 43908 97.2160 185.1172 0019281 199.3484 160.7025 15.26835937156906
FO-98
1 43933U 19003B 21294.36709386 .00021142 00000-0 69888-3 0 9997
2 43933 97.1713 331.3020 0012218 307.2451 52.7676 15.31311117153343
FO-99
1 43937U 19003F 21294.34884817 .00003062 00000-0 11949-3 0 9998
2 43937 97.1634 332.4472 0020905 286.9624 72.9324 15.26458809153460
MYSat 1
1 44045U 18092F 21294.04521574 .00007656 00000-0 18726-3 0 9994
2 44045 51.6364 172.6085 0008750 303.1660 56.8485 15.41774905150827
AstroCast 0.2
1 44083U 19018F 21294.60132726 .00003216 00000-0 13885-3 0 9993
2 44083 97.3588 353.2635 0011156 245.6998 114.3075 15.23173210142097
AISTechSat 3
1 44103U 19018AB 21294.78388396 .00002780 00000-0 11562-3 0 9996
2 44103 97.3463 353.8792 0011327 256.8266 236.0667 15.24551874142258
AISat 1
1 44104U 19018AC 21294.18253147 .00002378 00000-0 74856-4 0 9995
2 44104 97.4172 11.7635 0054264 267.5524 91.9504 15.32571362142921
Prox-1
1 44339U 19036A 21294.26565387 .00001459 00000-0 29121-3 0 9999
2 44339 23.9996 261.6928 0011729 117.4643 242.7042 14.53835315123491
Oculus-ASR
1 44348U 19036K 21294.50686022 .00029425 00000-0 38045-3 0 9994
2 44348 28.5126 12.7019 0313367 195.1393 163.9636 15.16460198128032
Armadillo
1 44352U 19036P 21294.47174479 .00045516 00000-0 52227-3 0 9990
2 44352 28.5297 340.7115 0272205 244.9979 112.2117 15.26990561128309
NO-104
1 44354U 19036R 21294.46763494 .00029637 00000-0 37230-3 0 9995
2 44354 28.5295 4.2443 0307578 206.5165 151.9392 15.18196578128119
NO-103
1 44355U 19036S 21294.38044618 .00077988 -50815-5 70917-3 0 9993
2 44355 28.5262 295.8113 0222388 317.8091 40.5587 15.40867270128797
CP9
1 44360U 19036X 21294.39364556 .00949528 43796-3 12145-2 0 9999
2 44360 28.4882 184.2079 0048266 146.0607 214.3110 16.03678511129756
Move-IIb
1 44398U 19038N 21294.61620254 .00003798 00000-0 20952-3 0 9991
2 44398 97.5968 258.2041 0022305 232.3442 127.5767 15.14377597126854
SONATE
1 44400U 19038Q 21294.59480129 .00001405 00000-0 83293-4 0 9998
2 44400 97.6046 257.9356 0023309 233.7862 126.1211 15.12855625126802
BeeSat 9
1 44412U 19038AC 21294.41793729 .00002050 00000-0 11687-3 0 9999
2 44412 97.6039 258.1424 0020302 237.9075 122.0186 15.13782244126508
JAISAT-1
1 44419U 19038F 21294.47953709 .00002119 00000-0 11909-3 0 9991
2 44419 97.6044 258.8514 0019238 235.1698 124.7725 15.14267360126860
LightSail-2
1 44420U 19036AC 21294.52216065 .00011439 00000-0 22195-2 0 9997
2 44420 24.0037 230.9665 0021396 154.9099 205.2437 14.61271854121940
Taurus 1
1 44530U 19059C 21294.65099748 .00000940 00000-0 27479-3 0 9991
2 44530 98.5509 26.0741 0015165 121.0972 239.1710 14.46243925111325
Duchifat 3
1 44854U 19089C 21294.70535838 .00001147 00000-0 97508-4 0 9995
2 44854 36.9655 73.9018 0007131 71.2132 288.9392 14.99710613102068
OPS-SAT
1 44878U 19092F 21294.53058341 .00002246 00000-0 11691-3 0 9994
2 44878 97.4768 116.2521 0015137 91.6676 268.6291 15.16965323101944
TO-108
1 44881U 19093C 21294.83749768 .00000163 00000-0 27512-4 0 9998
2 44881 97.9158 12.2373 0013729 240.3744 119.6089 14.81495123 99448
FloripaSat 1
1 44885U 19093G 21294.64833249 .00000617 00000-0 83520-4 0 9994
2 44885 97.9182 12.8324 0013354 248.3891 111.5907 14.82421997 99467
RS-44
1 44909U 19096E 21294.50091848 .00000021 00000-0 33973-4 0 9996
2 44909 82.5264 29.0502 0217951 158.1945 202.8611 12.79711234 84943
HO-107
1 45119U 19071J 21294.02764834 .00004885 00000-0 14337-3 0 9996
2 45119 51.6396 147.5500 0010827 28.2237 331.9331 15.36980939 96478
Phoenix
1 45258U 98067RB 21294.52589117 .00019379 00000-0 23892-3 0 9996
2 45258 51.6389 56.6738 0005512 0.7904 359.3097 15.60194140 94860
AztechSat-1
1 45261U 98067RE 21294.56633531 .00130228 00000-0 65339-3 0 9993
2 45261 51.6319 33.5497 0007796 359.5383 0.5610 15.80796671 95197
QARMAN
1 45263U 98067RG 21294.56752392 .00057467 00000-0 45938-3 0 9998
2 45263 51.6367 44.1707 0006200 3.4307 356.6732 15.70503475 95090
Quetzal 1
1 45598U 98067RL 21294.61992282 .00048590 00000-0 44865-3 0 9994
2 45598 51.6383 50.5743 0001377 354.9646 5.1336 15.67079756 84281
BY70-2
1 45857U 20042B 21294.83778259 .00001889 00000-0 27224-3 0 9990
2 45857 97.9762 9.2536 0012313 161.6385 198.5284 14.77425606 70204
UPMSat 2
1 46276U 20061E 21294.43971504 .00001205 00000-0 64817-4 0 9993
2 46276 97.4215 5.6266 0000383 34.9384 325.1874 15.16714960 62632
AmicalSat
1 46287U 20061R 21294.16543689 .00001555 00000-0 97439-4 0 9998
2 46287 97.4768 4.6243 0003607 48.4287 311.7252 15.10790428 62329
SALSAT
1 46495U 20068K 21294.57722119 .00001619 00000-0 12265-3 0 9992
2 46495 97.6986 231.3793 0017361 9.6082 350.5471 15.03607003 58289
BY70-3
1 46839U 20079N 21294.85601644 .00006358 00000-0 19038-3 0 9996
2 46839 97.2296 6.2099 0008613 110.4771 1.3632 15.34830552 53584
SPOC
1 46921U 98067RR 21294.42146094 .00017447 00000-0 23636-3 0 9996
2 46921 51.6410 66.5505 0001456 208.3279 151.7635 15.57777213 54478
Bobcat-1
1 46922U 98067RS 21294.36661213 .00032172 00000-0 37359-3 0 9994
2 46922 51.6419 63.2152 0001549 253.0716 107.0108 15.61457184 54472
Neutron-1
1 46923U 98067RT 21294.57575961 .00019745 00000-0 26784-3 0 9993
2 46923 51.6412 66.0773 0001573 226.4630 133.6232 15.57647923 54528
CAPE 3
1 47309U 21002A 21294.39823618 .00002249 00000-0 10934-3 0 9993
2 47309 60.6840 180.9202 0043940 115.2401 245.3249 15.21355461 42047
AO-109
1 47311U 21002C 21294.36858695 .00002572 00000-0 12081-3 0 9990
2 47311 60.6850 179.6705 0040101 111.4691 249.0680 15.22195373 42033
